Home   Weather   Mingachevir   Past weeks

Flag for Azerbaijan Past Weather in Mingachevir, Azerbaijan — Yesterday and Last 2 Weeks

Now
41 °F

Overcast.


Feels Like: 33 °F
Forecast: 41 / 59 °F
Wind: 16 mph from Northwest

Location: Gyanca Airport

Current Time: Dec 11, 2016 at 6:09:26 am

Latest Report: Dec 11, 2016 at 5:30 am


Visibility: N/A

Pressure: 29.86 "Hg

Humidity: 66%

Dew Point: 30 °F

Location of MingachevirLocation

Past Weather in Mingachevir — Graph

°F

Mingachevir Temperature Yesterday

Maximum temperature yesterday: 50 °F (at 3:30 pm)
Minimum temperature yesterday: 32 °F (at 5:00 am)
Average temperature yesterday: 41 °F

High & Low Weather Summary for the Past Weeks

 TemperatureHumidityPressure
High64 °F (Nov 29, 2:30 pm)100% (Dec 1, 9:30 am)30.48 "Hg (Dec 1, 9:30 am)
Low25 °F (Dec 7, 7:00 am)14% (Nov 29, 3:00 pm)29.59 "Hg (Dec 2, 2:30 pm)
Average41 °F57%30.09 "Hg
* Reported Nov 26 5:00 am — Dec 11 5:00 am, Mingachevir, Weather by CustomWeather, © 2016

Note: Actual official high and low records may vary slightly from our data, if they occured in-between our weather recording intervals... More about our weather records

Advertising

Mingachevir Weather History for the Previous 24 Hours

Scroll right to see more
 ConditionsComfort  
Time TempWeatherWind HumidityBarometerVisibility
5:00 am
Sun, Dec 11
39 °FOvercast.10 mph70%29.86 "HgN/A
4:30 am41 °FOvercast.12 mph66%29.89 "HgN/A
4:00 am39 °FOvercast.2 mph65%29.89 "HgN/A
3:30 am41 °FOvercast.2 mph66%29.89 "HgN/A
3:00 am43 °FOvercast.15 mph61%29.86 "HgN/A
2:30 am43 °FOvercast.18 mph57%29.86 "HgN/A
2:00 am41 °FOvercast.14 mph66%29.86 "HgN/A
1:30 am41 °FOvercast.13 mph66%29.86 "HgN/A
1:00 am41 °FOvercast.12 mph66%29.86 "HgN/A
12:30 am43 °FOvercast.13 mph61%29.86 "HgN/A
12:00 am43 °FOvercast.12 mph61%29.89 "HgN/A
11:30 pm
Sat, Dec 10
43 °FOvercast.12 mph61%29.89 "HgN/A
11:00 pm43 °FOvercast.8 mph61%29.89 "HgN/A
10:30 pm43 °FOvercast.9 mph66%29.89 "HgN/A
10:00 pm43 °FOvercast.8 mph66%29.89 "HgN/A
9:30 pm43 °FPassing clouds.10 mph66%29.89 "HgN/A
9:00 pm45 °FPassing clouds.13 mph57%29.89 "HgN/A
8:30 pm45 °FPassing clouds.17 mph57%29.89 "HgN/A
8:00 pm46 °FPassing clouds.18 mph53%29.89 "HgN/A
7:30 pm46 °FPassing clouds.14 mph53%29.89 "HgN/A
7:00 pm43 °FPassing clouds.7 mph53%29.89 "HgN/A
6:30 pm39 °FPassing clouds.8 mph61%29.89 "HgN/A
6:00 pm43 °FPartly sunny.No wind53%29.86 "HgN/A
5:30 pm45 °FPartly sunny.3 mph53%29.86 "HgN/A
5:00 pm46 °FPartly sunny.3 mph46%29.86 "HgN/A
4:30 pm48 °FScattered clouds.5 mph43%29.86 "HgN/A
4:00 pm48 °FScattered clouds.1 mph43%29.86 "HgN/A
3:30 pm50 °FScattered clouds.7 mph40%29.86 "HgN/A
3:00 pm46 °FScattered clouds.6 mph46%29.89 "HgN/A
2:30 pm46 °FScattered clouds.7 mph46%29.89 "HgN/A
2:00 pm46 °FScattered clouds.7 mph46%29.89 "HgN/A
1:30 pm48 °FScattered clouds.8 mph43%29.92 "HgN/A
1:00 pm46 °FScattered clouds.8 mph46%29.92 "HgN/A
12:30 pm46 °FScattered clouds.8 mph46%29.92 "HgN/A
12:00 pm45 °FScattered clouds.9 mph49%29.95 "HgN/A
11:30 am45 °FScattered clouds.6 mph49%29.95 "HgN/A
11:00 am45 °FPassing clouds.8 mph49%29.95 "HgN/A
10:30 am45 °FPassing clouds.9 mph46%29.95 "HgN/A
9:30 am39 °FPassing clouds.5 mph56%29.98 "HgN/A
9:00 am34 °FPassing clouds.8 mph65%29.98 "HgN/A
8:30 am32 °FPassing clouds.9 mph64%29.98 "HgN/A
8:00 am32 °FPassing clouds.8 mph69%29.98 "HgN/A
7:30 am34 °FPassing clouds.9 mph60%29.98 "HgN/A
7:00 am32 °FPassing clouds.7 mph64%30.01 "HgN/A
6:30 am32 °FPassing clouds.8 mph64%29.98 "HgN/A
6:00 am36 °FPassing clouds.5 mph52%30.01 "HgN/A
Weather by CustomWeather, © 2016

See weather overviewHow to use our weather pages